Terminal Aerodrome Forecast
Issued by NWS Mobile, AL

Current Version | Previous Version | Text Only | Print | Product List | Glossary On
Versions: 1 2 3 4 5 6 7 8 9 10 11 12 13 14 15 16 17 18 19 20 21 22 23 24 25
000
FTUS44 KMOB 290500
TAFPNS
TAF
KPNS 290528Z 2906/3006 32003KT P6SM SKC
     FM290900 36006KT P6SM SKC
     FM300300 32005KT P6SM SKC=

USA.gov is the U.S. government's official web portal to all federal, state and local government web resources and services.